THOR ABLESTAR DEB, 150

Orbit data source: Space-Track

THOR ABLESTAR DEB, 150 is space debris in LEO originally from a launch on Thu, 29 Jun 1961 UTC launched from the Air Force Eastern Test Range (AFETR). Debris objects in space refer to the collection of defunct objects orbiting the Earth. Examples of debris include non-operational satellites, rocket bodies, and fragments generated from explosions, collisions, or faulty payload assembly.

Loading next visibility...
Identifier
150, 1961-015AL
Orbit
LEO
Country
Flag of USUS
Related business
Manufacturer
Unknown
Mission
Spacecraft
Bus & Motor
Unknown
Mass
Unknown
Launch date (UTC)
1961-06-29 (64 years ago)
Launch vehicle
Unknown
Launch site
Air Force Eastern Test Range (AFETR)
Object type
Payload
Rocket body
Debris
Shape & HBR
Unknown shape, 0.1 m
Radar Cross Section
Medium (>0.1 m² and <1 m²)

Expand to show TLE details & history
Last TLE update: 8 hours ago

TLE from 8 hours ago
0 THOR ABLESTAR DEB
1   150U 61015AL  25354.11538862  .00000510  00000-0  52519-3 0  9993
2   150  66.2484 344.8076 0059776 352.0953   7.9169 13.83694659 83727
Epoch: 2025-12-20T02:46Z
TLE epoch observation values (Epoch: 2025-12-20T02:46:09.576Z)
Latitude
-0.00007°
Longitude
-145.67915°
Altitude
909.447 km
Speed
7.42 km/s
True Right ascension
22h 59m 13s
True Declination
0° 00' 00"
Sunlit
Object was in daylight at epoch
Visualization orbit readout
Latitude
Unknown
Longitude
Unknown
Altitude
Unknown
Speed
Unknown
Apparent Right ascension
Unknown
Apparent Declination
Unknown
Sunlit
N/A
Visualization observer readout
Local Sidereal Time
09:30:55
Azimuth
Unknown
Elevation
Unknown
Doppler factor
Unknown
Orbital elements
Apogee altitude
993.074 km
Perigee altitude
905.473 km
Semi-major axis
7,327.411 km
Eccentricity
0.00598
Inclination
66.2484°
RAAN
344.8076°
Arg. of periapsis
352.0953°
True anomaly
8.01195°
Mean anomaly
7.9169°
Eccentric anomaly
7.96435°
Mean motion
3.46033 °/min
Orbital period
104.04 mins
BSTAR
0.00052519

Documentation

Showing up to 5 results
|